Вернуться в каталог

FENGYUN 1C DEB

АктивенSSO
NORAD 31303·DEBRIS·🇨🇳 China

Запущен May 10, 1999 с Taiyuan Satellite Launch Center

Loading…

Ближайшие Пролёты (ближайшие 24 часа)

TLE

СвежийSource: Space-Track

Эпоха: Sep 13, 2026, 06:29 UTC

1 31303U 99025BPM 26256.27037183  .00000086  00000-0  71429-4 0  9998
2 31303  98.6946 268.8767 0012279  96.4326 263.8244 14.11129048  1842

Отслеживайте FENGYUN 1C DEB в реальном времени с AllMySat

Download on the App Store